����������;��������(kVARh)
2019-07-08 00:00;5,5
2019-07-08 00:15;4,05
2019-07-08 00:30;0
2019-07-08 00:45;0
2019-07-08 01:00;0,05
2019-07-08 01:15;0
2019-07-08 01:30;0
2019-07-08 01:45;0,1
2019-07-08 02:00;0
2019-07-08 02:15;0,2
2019-07-08 02:30;0,05
2019-07-08 02:45;0,05
2019-07-08 03:00;0,2
2019-07-08 03:15;0
2019-07-08 03:30;0,3
2019-07-08 03:45;2,2
2019-07-08 04:00;2,15
2019-07-08 04:15;1,65
2019-07-08 04:30;1,9
2019-07-08 04:45;2,35
2019-07-08 05:00;0,95
2019-07-08 05:15;1,2
2019-07-08 05:30;2,5
2019-07-08 05:45;1,8
2019-07-08 06:00;1,35
2019-07-08 06:15;0,95
2019-07-08 06:30;1,15
2019-07-08 06:45;2
2019-07-08 07:00;5,55
2019-07-08 07:15;6,5
2019-07-08 07:30;21,25
2019-07-08 07:45;23,65
2019-07-08 08:00;38,5
2019-07-08 08:15;28,95
2019-07-08 08:30;35,1
2019-07-08 08:45;41,4
2019-07-08 09:00;36,75
2019-07-08 09:15;42,5
2019-07-08 09:30;43,9
2019-07-08 09:45;51,2
2019-07-08 10:00;50,9
2019-07-08 10:15;49,05
2019-07-08 10:30;47,35
2019-07-08 10:45;45,65
2019-07-08 11:00;39,2
2019-07-08 11:15;41,15
2019-07-08 11:30;40,15
2019-07-08 11:45;45,65
2019-07-08 12:00;76,9
2019-07-08 12:15;70,9
2019-07-08 12:30;63,6
2019-07-08 12:45;61,6
2019-07-08 13:00;70,3
2019-07-08 13:15;56,75
2019-07-08 13:30;65
2019-07-08 13:45;58,75
2019-07-08 14:00;58,75
2019-07-08 14:15;54,95
2019-07-08 14:30;66
2019-07-08 14:45;62,7
2019-07-08 15:00;66,85
2019-07-08 15:15;58,95
2019-07-08 15:30;63,5
2019-07-08 15:45;58,2
2019-07-08 16:00;55,3
2019-07-08 16:15;53
2019-07-08 16:30;47,7
2019-07-08 16:45;52,2
2019-07-08 17:00;40,1
2019-07-08 17:15;41,6
2019-07-08 17:30;37,8
2019-07-08 17:45;34,1
2019-07-08 18:00;35,8
2019-07-08 18:15;33,95
2019-07-08 18:30;34,15
2019-07-08 18:45;28,6
2019-07-08 19:00;38,7
2019-07-08 19:15;36,4
2019-07-08 19:30;37,5
2019-07-08 19:45;33,5
2019-07-08 20:00;29,55
2019-07-08 20:15;28,9
2019-07-08 20:30;31,25
2019-07-08 20:45;31
2019-07-08 21:00;30,35
2019-07-08 21:15;30
2019-07-08 21:30;27,25
2019-07-08 21:45;28,8
2019-07-08 22:00;23,95
2019-07-08 22:15;14,2
2019-07-08 22:30;12,7
2019-07-08 22:45;15,15
2019-07-08 23:00;15,65
2019-07-08 23:15;14,9
2019-07-08 23:30;15,05
2019-07-08 23:45;11,85
2019-07-09 00:00;9,4
2019-07-09 00:15;9,35
2019-07-09 00:30;0,9
2019-07-09 00:45;0
2019-07-09 01:00;0
2019-07-09 01:15;0
2019-07-09 01:30;0
2019-07-09 01:45;0
2019-07-09 02:00;0
2019-07-09 02:15;0
2019-07-09 02:30;0
2019-07-09 02:45;0
2019-07-09 03:00;0
2019-07-09 03:15;0
2019-07-09 03:30;0
2019-07-09 03:45;0
2019-07-09 04:00;0
2019-07-09 04:15;0,5
2019-07-09 04:30;0,1
2019-07-09 04:45;0
2019-07-09 05:00;0
2019-07-09 05:15;0
2019-07-09 05:30;0
2019-07-09 05:45;0
2019-07-09 06:00;0,05
2019-07-09 06:15;0,15
2019-07-09 06:30;0
2019-07-09 06:45;0,15
2019-07-09 07:00;6,2
2019-07-09 07:15;10,7
2019-07-09 07:30;21,1
2019-07-09 07:45;23,55
2019-07-09 08:00;25,2
2019-07-09 08:15;30,4
2019-07-09 08:30;40,25
2019-07-09 08:45;38,4
2019-07-09 09:00;42,25
2019-07-09 09:15;38,25
2019-07-09 09:30;47,55
2019-07-09 09:45;49,7
2019-07-09 10:00;49,8
2019-07-09 10:15;59,1
2019-07-09 10:30;52,5
2019-07-09 10:45;51,2
2019-07-09 11:00;57,75
2019-07-09 11:15;54,55
2019-07-09 11:30;50,2
2019-07-09 11:45;54,95
2019-07-09 12:00;53,95
2019-07-09 12:15;61,5
2019-07-09 12:30;68,9
2019-07-09 12:45;69,45
2019-07-09 13:00;67,05
2019-07-09 13:15;67,55
2019-07-09 13:30;67,8
2019-07-09 13:45;69,75
2019-07-09 14:00;70,5
2019-07-09 14:15;70,3
2019-07-09 14:30;66,6
2019-07-09 14:45;65,7
2019-07-09 15:00;66,4
2019-07-09 15:15;62,1
2019-07-09 15:30;60,75
2019-07-09 15:45;56,15
2019-07-09 16:00;46,3
2019-07-09 16:15;47,5
2019-07-09 16:30;41,95
2019-07-09 16:45;39,2
2019-07-09 17:00;39,75
2019-07-09 17:15;38,5
2019-07-09 17:30;29
2019-07-09 17:45;26,5
2019-07-09 18:00;26,85
2019-07-09 18:15;25,55
2019-07-09 18:30;24,75
2019-07-09 18:45;22,6
2019-07-09 19:00;22,95
2019-07-09 19:15;21,8
2019-07-09 19:30;22,6
2019-07-09 19:45;23,5
2019-07-09 20:00;22,6
2019-07-09 20:15;24,25
2019-07-09 20:30;24
2019-07-09 20:45;23,6
2019-07-09 21:00;22,95
2019-07-09 21:15;21,65
2019-07-09 21:30;23,45
2019-07-09 21:45;24,95
2019-07-09 22:00;21,85
2019-07-09 22:15;17,35
2019-07-09 22:30;17,35
2019-07-09 22:45;15,9
2019-07-09 23:00;13,6
2019-07-09 23:15;11,35
2019-07-09 23:30;12,35
2019-07-09 23:45;12,85
2019-07-10 00:00;10,1
2019-07-10 00:15;4,75
2019-07-10 00:30;1,6
2019-07-10 00:45;0,1
2019-07-10 01:00;0
2019-07-10 01:15;0
2019-07-10 01:30;0
2019-07-10 01:45;0
2019-07-10 02:00;0
2019-07-10 02:15;0
2019-07-10 02:30;0
2019-07-10 02:45;0
2019-07-10 03:00;0,2
2019-07-10 03:15;3,65
2019-07-10 03:30;5,5
2019-07-10 03:45;6,75
2019-07-10 04:00;6,7
2019-07-10 04:15;6,9
2019-07-10 04:30;7,2
2019-07-10 04:45;7,6
2019-07-10 05:00;8,2
2019-07-10 05:15;8,15
2019-07-10 05:30;12,65
2019-07-10 05:45;12,3
2019-07-10 06:00;12,65
2019-07-10 06:15;11,35
2019-07-10 06:30;11,1
2019-07-10 06:45;9,3
2019-07-10 07:00;10,65
2019-07-10 07:15;10,5
2019-07-10 07:30;21,15
2019-07-10 07:45;25,25
2019-07-10 08:00;20,4
2019-07-10 08:15;22,85
2019-07-10 08:30;21,85
2019-07-10 08:45;30,2
2019-07-10 09:00;35,75
2019-07-10 09:15;35,7
2019-07-10 09:30;39,7
2019-07-10 09:45;40,1
2019-07-10 10:00;41,9
2019-07-10 10:15;52,4
2019-07-10 10:30;58,05
2019-07-10 10:45;52,25
2019-07-10 11:00;58,65
2019-07-10 11:15;55,6
2019-07-10 11:30;54,75
2019-07-10 11:45;52,45
2019-07-10 12:00;59,9
2019-07-10 12:15;60,85
2019-07-10 12:30;53,6
2019-07-10 12:45;60,15
2019-07-10 13:00;58,15
2019-07-10 13:15;52,55
2019-07-10 13:30;61,4
2019-07-10 13:45;63,35
2019-07-10 14:00;59,65
2019-07-10 14:15;64,8
2019-07-10 14:30;63,7
2019-07-10 14:45;66,2
2019-07-10 15:00;57,9
2019-07-10 15:15;60,5
2019-07-10 15:30;57,35
2019-07-10 15:45;55,3
2019-07-10 16:00;57,25
2019-07-10 16:15;48,85
2019-07-10 16:30;43,05
2019-07-10 16:45;32,45
2019-07-10 17:00;36,15
2019-07-10 17:15;28,65
2019-07-10 17:30;34
2019-07-10 17:45;25,1
2019-07-10 18:00;24
2019-07-10 18:15;23,35
2019-07-10 18:30;23,15
2019-07-10 18:45;19,75
2019-07-10 19:00;20,65
2019-07-10 19:15;22,2
2019-07-10 19:30;20,95
2019-07-10 19:45;22,55
2019-07-10 20:00;14,15
2019-07-10 20:15;8,1
2019-07-10 20:30;9,6
2019-07-10 20:45;9,05
2019-07-10 21:00;7
2019-07-10 21:15;6,8
2019-07-10 21:30;7,3
2019-07-10 21:45;7,2
2019-07-10 22:00;7,2
2019-07-10 22:15;6,5
2019-07-10 22:30;8,95
2019-07-10 22:45;10,75
2019-07-10 23:00;13,3
2019-07-10 23:15;10,45
2019-07-10 23:30;11,75
2019-07-10 23:45;4,4
2019-07-11 00:00;4,15
2019-07-11 00:15;5,25
2019-07-11 00:30;5,3
2019-07-11 00:45;4,9
2019-07-11 01:00;3,85
2019-07-11 01:15;3,65
2019-07-11 01:30;3,45
2019-07-11 01:45;4,9
2019-07-11 02:00;4,75
2019-07-11 02:15;5,05
2019-07-11 02:30;2,15
2019-07-11 02:45;0,4
2019-07-11 03:00;0,7
2019-07-11 03:15;0,5
2019-07-11 03:30;2,5
2019-07-11 03:45;2,1
2019-07-11 04:00;0,65
2019-07-11 04:15;1,3
2019-07-11 04:30;2,1
2019-07-11 04:45;3,05
2019-07-11 05:00;5,85
2019-07-11 05:15;4,05
2019-07-11 05:30;5,05
2019-07-11 05:45;5,95
2019-07-11 06:00;4,8
2019-07-11 06:15;4,35
2019-07-11 06:30;4,15
2019-07-11 06:45;6,9
2019-07-11 07:00;14,5
2019-07-11 07:15;13,1
2019-07-11 07:30;32,4
2019-07-11 07:45;32,9
2019-07-11 08:00;27,1
2019-07-11 08:15;33
2019-07-11 08:30;33,7
2019-07-11 08:45;36,55
2019-07-11 09:00;40,2
2019-07-11 09:15;38,35
2019-07-11 09:30;52,75
2019-07-11 09:45;57,2
2019-07-11 10:00;50,4
2019-07-11 10:15;60,1
2019-07-11 10:30;62
2019-07-11 10:45;61
2019-07-11 11:00;57,95
2019-07-11 11:15;58,75
2019-07-11 11:30;65,1
2019-07-11 11:45;60,2
2019-07-11 12:00;62,25
2019-07-11 12:15;65
2019-07-11 12:30;62,6
2019-07-11 12:45;68,55
2019-07-11 13:00;60,95
2019-07-11 13:15;63,4
2019-07-11 13:30;69,8
2019-07-11 13:45;68,1
2019-07-11 14:00;62,65
2019-07-11 14:15;70,2
2019-07-11 14:30;61,85
2019-07-11 14:45;61,95
2019-07-11 15:00;67,15
2019-07-11 15:15;60,95
2019-07-11 15:30;59
2019-07-11 15:45;49,25
2019-07-11 16:00;52,05
2019-07-11 16:15;43,6
2019-07-11 16:30;32,4
2019-07-11 16:45;32,05
2019-07-11 17:00;21,6
2019-07-11 17:15;28,4
2019-07-11 17:30;18,8
2019-07-11 17:45;16,8
2019-07-11 18:00;14,25
2019-07-11 18:15;17,95
2019-07-11 18:30;16,9
2019-07-11 18:45;16,7
2019-07-11 19:00;15,95
2019-07-11 19:15;19,05
2019-07-11 19:30;17,3
2019-07-11 19:45;18,5
2019-07-11 20:00;19,3
2019-07-11 20:15;17,4
2019-07-11 20:30;10,9
2019-07-11 20:45;9,05
2019-07-11 21:00;9,3
2019-07-11 21:15;9,3
2019-07-11 21:30;8,55
2019-07-11 21:45;7,2
2019-07-11 22:00;8,6
2019-07-11 22:15;9,1
2019-07-11 22:30;7,2
2019-07-11 22:45;7,15
2019-07-11 23:00;8,95
2019-07-11 23:15;10,8
2019-07-11 23:30;11,15
2019-07-11 23:45;12,15
2019-07-12 00:00;6,4
2019-07-12 00:15;1,4
2019-07-12 00:30;0
2019-07-12 00:45;1,75
2019-07-12 01:00;0,4
2019-07-12 01:15;0
2019-07-12 01:30;0
2019-07-12 01:45;0,05
2019-07-12 02:00;0
2019-07-12 02:15;0
2019-07-12 02:30;0
2019-07-12 02:45;0
2019-07-12 03:00;1,1
2019-07-12 03:15;0
2019-07-12 03:30;0
2019-07-12 03:45;0
2019-07-12 04:00;0
2019-07-12 04:15;0
2019-07-12 04:30;0
2019-07-12 04:45;0,15
2019-07-12 05:00;0,45
2019-07-12 05:15;0,4
2019-07-12 05:30;0,2
2019-07-12 05:45;0
2019-07-12 06:00;0
2019-07-12 06:15;0
2019-07-12 06:30;0,9
2019-07-12 06:45;0,6
2019-07-12 07:00;8,65
2019-07-12 07:15;6,8
2019-07-12 07:30;24,15
2019-07-12 07:45;24,55
2019-07-12 08:00;17,6
2019-07-12 08:15;32,85
2019-07-12 08:30;32,8
2019-07-12 08:45;38,95
2019-07-12 09:00;44,45
2019-07-12 09:15;42,65
2019-07-12 09:30;43,65
2019-07-12 09:45;47,9
2019-07-12 10:00;46,1
2019-07-12 10:15;46,5
2019-07-12 10:30;50,2
2019-07-12 10:45;52,65
2019-07-12 11:00;54,55
2019-07-12 11:15;50,15
2019-07-12 11:30;50,2
2019-07-12 11:45;51,6
2019-07-12 12:00;52,2
2019-07-12 12:15;50,1
2019-07-12 12:30;49,7
2019-07-12 12:45;54,6
2019-07-12 13:00;50,35
2019-07-12 13:15;60,3
2019-07-12 13:30;58,6
2019-07-12 13:45;59,2
2019-07-12 14:00;59,25
2019-07-12 14:15;56
2019-07-12 14:30;55,95
2019-07-12 14:45;58,5
2019-07-12 15:00;59,15
2019-07-12 15:15;51,85
2019-07-12 15:30;35,8
2019-07-12 15:45;44,9
2019-07-12 16:00;39,5
2019-07-12 16:15;28,8
2019-07-12 16:30;23,6
2019-07-12 16:45;16,2
2019-07-12 17:00;15,8
2019-07-12 17:15;12
2019-07-12 17:30;12,6
2019-07-12 17:45;7,2
2019-07-12 18:00;9,65
2019-07-12 18:15;10,8
2019-07-12 18:30;9,3
2019-07-12 18:45;6,4
2019-07-12 19:00;6,85
2019-07-12 19:15;11,05
2019-07-12 19:30;12,45
2019-07-12 19:45;13,35
2019-07-12 20:00;12,95
2019-07-12 20:15;14,5
2019-07-12 20:30;13,6
2019-07-12 20:45;13,4
2019-07-12 21:00;13,7
2019-07-12 21:15;14,2
2019-07-12 21:30;16,4
2019-07-12 21:45;14,25
2019-07-12 22:00;5,3
2019-07-12 22:15;5
2019-07-12 22:30;4,85
2019-07-12 22:45;6,35
2019-07-12 23:00;6,4
2019-07-12 23:15;6,95
2019-07-12 23:30;9,55
2019-07-12 23:45;11,6
2019-07-13 00:00;6,7
2019-07-13 00:15;3,05
2019-07-13 00:30;0
2019-07-13 00:45;0
2019-07-13 01:00;0
2019-07-13 01:15;0
2019-07-13 01:30;0
2019-07-13 01:45;0
2019-07-13 02:00;0
2019-07-13 02:15;0
2019-07-13 02:30;0
2019-07-13 02:45;0
2019-07-13 03:00;0
2019-07-13 03:15;0
2019-07-13 03:30;0,2
2019-07-13 03:45;0,05
2019-07-13 04:00;0,05
2019-07-13 04:15;0,4
2019-07-13 04:30;0,1
2019-07-13 04:45;0,1
2019-07-13 05:00;0,2
2019-07-13 05:15;0,5
2019-07-13 05:30;0,6
2019-07-13 05:45;0,4
2019-07-13 06:00;0,15
2019-07-13 06:15;0,05
2019-07-13 06:30;0
2019-07-13 06:45;0
2019-07-13 07:00;0
2019-07-13 07:15;5,45
2019-07-13 07:30;7,25
2019-07-13 07:45;5,8
2019-07-13 08:00;6,6
2019-07-13 08:15;4,5
2019-07-13 08:30;4,2
2019-07-13 08:45;1,8
2019-07-13 09:00;4,35
2019-07-13 09:15;3,55
2019-07-13 09:30;4,4
2019-07-13 09:45;3,85
2019-07-13 10:00;4,1
2019-07-13 10:15;2,4
2019-07-13 10:30;4,05
2019-07-13 10:45;3,35
2019-07-13 11:00;3,5
2019-07-13 11:15;7,95
2019-07-13 11:30;9,3
2019-07-13 11:45;9,65
2019-07-13 12:00;8,55
2019-07-13 12:15;8,9
2019-07-13 12:30;8,55
2019-07-13 12:45;8,3
2019-07-13 13:00;8,05
2019-07-13 13:15;8,35
2019-07-13 13:30;7,45
2019-07-13 13:45;7,2
2019-07-13 14:00;7,5
2019-07-13 14:15;8,2
2019-07-13 14:30;7,35
2019-07-13 14:45;9,3
2019-07-13 15:00;10,85
2019-07-13 15:15;9,3
2019-07-13 15:30;9,8
2019-07-13 15:45;10,45
2019-07-13 16:00;12
2019-07-13 16:15;11,75
2019-07-13 16:30;12,55
2019-07-13 16:45;7,8
2019-07-13 17:00;6,75
2019-07-13 17:15;6
2019-07-13 17:30;6,3
2019-07-13 17:45;4,9
2019-07-13 18:00;6,5
2019-07-13 18:15;6,25
2019-07-13 18:30;6,15
2019-07-13 18:45;7,1
2019-07-13 19:00;7,15
2019-07-13 19:15;6,6
2019-07-13 19:30;7,8
2019-07-13 19:45;7,95
2019-07-13 20:00;8,65
2019-07-13 20:15;8,15
2019-07-13 20:30;10,15
2019-07-13 20:45;9,85
2019-07-13 21:00;9,4
2019-07-13 21:15;7,4
2019-07-13 21:30;8,95
2019-07-13 21:45;8,25
2019-07-13 22:00;9
2019-07-13 22:15;8,75
2019-07-13 22:30;5,9
2019-07-13 22:45;2,1
2019-07-13 23:00;4,55
2019-07-13 23:15;3,25
2019-07-13 23:30;5
2019-07-13 23:45;6,85
2019-07-14 00:00;0
2019-07-14 00:15;1,1
2019-07-14 00:30;0,3
2019-07-14 00:45;0
2019-07-14 01:00;0
2019-07-14 01:15;0,2
2019-07-14 01:30;0,05
2019-07-14 01:45;0,4
2019-07-14 02:00;1,25
2019-07-14 02:15;1,7
2019-07-14 02:30;0,75
2019-07-14 02:45;1,35
2019-07-14 03:00;1,4
2019-07-14 03:15;1,95
2019-07-14 03:30;3,5
2019-07-14 03:45;3,35
2019-07-14 04:00;3,1
2019-07-14 04:15;3,9
2019-07-14 04:30;2,65
2019-07-14 04:45;2,75
2019-07-14 05:00;3,7
2019-07-14 05:15;3,15
2019-07-14 05:30;4,35
2019-07-14 05:45;4,5
2019-07-14 06:00;3,65
2019-07-14 06:15;4,25
2019-07-14 06:30;5,15
2019-07-14 06:45;2,55
2019-07-14 07:00;2,5
2019-07-14 07:15;0,75
2019-07-14 07:30;1,75
2019-07-14 07:45;1,6
2019-07-14 08:00;2,7
2019-07-14 08:15;1,2
2019-07-14 08:30;1,7
2019-07-14 08:45;5,15
2019-07-14 09:00;7,6
2019-07-14 09:15;5,9
2019-07-14 09:30;4,7
2019-07-14 09:45;11,35
2019-07-14 10:00;10,3
2019-07-14 10:15;8,85
2019-07-14 10:30;5,85
2019-07-14 10:45;4,3
2019-07-14 11:00;1,9
2019-07-14 11:15;0,05
2019-07-14 11:30;0
2019-07-14 11:45;0
2019-07-14 12:00;0,35
2019-07-14 12:15;7,65
2019-07-14 12:30;1,05
2019-07-14 12:45;0,1
2019-07-14 13:00;0,4
2019-07-14 13:15;0,6
2019-07-14 13:30;0,05
2019-07-14 13:45;0
2019-07-14 14:00;0,05
2019-07-14 14:15;0,05
2019-07-14 14:30;0,05
2019-07-14 14:45;0,2
2019-07-14 15:00;6,45
2019-07-14 15:15;7,65
2019-07-14 15:30;7,15
2019-07-14 15:45;7,65
2019-07-14 16:00;7,8
2019-07-14 16:15;8,65
2019-07-14 16:30;7,7
2019-07-14 16:45;7,85
2019-07-14 17:00;5,9
2019-07-14 17:15;6,8
2019-07-14 17:30;6,4
2019-07-14 17:45;4,85
2019-07-14 18:00;4,8
2019-07-14 18:15;4,35
2019-07-14 18:30;4,75
2019-07-14 18:45;4,35
2019-07-14 19:00;6,85
2019-07-14 19:15;5,9
2019-07-14 19:30;8,5
2019-07-14 19:45;12,9
2019-07-14 20:00;12,35
2019-07-14 20:15;13,45
2019-07-14 20:30;13
2019-07-14 20:45;12,75
2019-07-14 21:00;12,7
2019-07-14 21:15;11,65
2019-07-14 21:30;10,35
2019-07-14 21:45;9,9
2019-07-14 22:00;10,55
2019-07-14 22:15;7,95
2019-07-14 22:30;5,85
2019-07-14 22:45;6,35
2019-07-14 23:00;8,3
2019-07-14 23:15;8,35
2019-07-14 23:30;5,6
2019-07-14 23:45;2,1

